Temp
17 16 16 16 15 15 15 15 15 14 14 14 14 14 14 13 13 13 13 12 12 12 12 12 11 11 11 11 11 11 11 11 10 10 10 10 10 10 10 9 9 9 9 9 9 9 9 9 10 11 11 12 13 13 14 15 15 15 15 15 14 14 14 14 14 15 15 16 16 17 17 17 18 18 17 17 17 18 18 19 19 19 18 17 17
17 16 16 16 15 15 15 14 14 14 14 14 14 13 13 13 13 12 12 12 12 12 12 11 11 11 11 11 11 11 11 11 10 10 10 10 10 9 9 9 9 9 9 9 9 9 9 9 9 10 10 11 12 12 13 14 14 14 15 15 15 15 14 14 14 14 15 15 15 16 16 17 17 17 16 16 16 17 17 18 18 18 17 17 16
16 16 16 15 15 15 15 14 14 14 14 14 13 13 13 13 12 12 12 12 12 12 11 11 11 11 11 11 11 11 11 11 10 10 10 10 10 9 9 9 9 9 9 8 8 8 8 9 9 9 9 10 11 11 12 13 13 14 14 15 15 15 15 14 14 14 14 15 15 15 16 16 16 17 16 15 15 15 15 16 17 17 17 16 16
16 16 16 15 15 15 14 14 14 13 13 13 13 13 13 13 12 12 12 12 11 11 11 11 11 11 11 11 11 11 11 10 10 10 10 10 9 9 9 9 9 9 8 8 8 8 8 8 9 9 9 9 10 10 11 11 12 13 13 14 14 14 15 15 14 14 14 14 15 15 15 16 16 17 16 15 15 14 14 15 15 16 16 16 16
16 16 15 15 15 14 14 14 14 13 13 13 13 13 12 12 12 12 12 12 11 11 11 11 11 11 11 11 10 10 10 10 10 10 10 9 9 9 9 9 9 9 9 8 8 8 8 8 8 8 8 9 9 10 10 11 11 12 13 13 13 14 14 15 15 14 14 14 14 15 15 15 15 16 16 15 14 13 13 13 14 15 15 15 14
16 15 15 15 14 14 14 14 13 13 13 13 13 12 12 12 12 12 12 11 11 11 11 11 11 11 10 10 10 10 9 9 9 9 9 9 9 9 9 9 9 9 8 8 8 8 8 8 8 8 8 8 9 9 9 10 10 11 12 12 13 13 14 14 14 14 14 14 14 14 14 15 14 14 15 15 14 13 12 12 12 13 14 13 13
16 15 15 15 14 14 14 13 13 13 13 13 12 12 12 12 12 12 11 11 11 11 11 11 10 10 10 10 10 9 9 9 9 9 9 9 9 9 9 8 8 8 8 8 8 8 8 8 8 8 8 8 8 8 9 9 9 10 11 11 12 13 14 14 14 14 14 14 14 14 14 14 14 13 13 14 14 13 12 11 10 11 11 12 12
16 15 15 15 14 14 14 13 13 13 13 13 12 12 12 12 12 11 11 11 11 11 11 10 10 10 10 9 9 9 9 8 8 8 8 8 8 8 8 8 8 8 8 8 8 8 8 8 8 8 8 8 8 8 8 8 8 9 9 10 10 11 12 13 13 13 13 14 14 14 14 13 13 13 12 12 11 11 11 11 11 10 9 10 11
16 15 15 14 14 14 14 13 13 13 13 12 12 12 12 12 11 11 11 11 11 11 10 10 10 9 9 9 9 8 8 8 8 8 8 8 8 8 8 8 8 8 8 8 8 8 8 8 8 8 8 8 8 8 8 7 8 8 8 8 8 9 10 11 12 13 13 13 13 13 13 13 12 12 11 11 11 11 11 11 11 10 9 9 9
15 15 14 14 14 14 13 13 13 13 13 12 12 12 12 12 11 11 11 11 11 10 10 10 10 9 9 9 8 8 8 8 7 7 7 7 7 7 7 7 7 7 7 7 7 7 7 7 7 7 7 7 7 7 7 7 7 7 7 8 8 8 8 9 10 11 12 13 13 13 13 12 12 11 11 12 12 12 11 10 10 9 8 8 7
15 15 14 14 14 14 13 13 13 13 13 12 12 12 12 11 11 11 11 11 10 10 10 10 9 9 9 8 8 8 7 7 7 7 7 7 7 6 6 6 6 6 6 6 6 6 7 7 7 7 7 7 7 7 7 7 7 7 7 8 8 8 8 8 9 10 11 12 13 13 13 12 12 12 12 12 12 12 11 10 9 8 7 7 7
15 15 14 14 14 14 13 13 13 13 12 12 12 12 11 11 11 11 11 10 10 10 10 9 9 8 8 8 7 7 7 7 7 7 7 6 6 6 6 6 6 5 5 5 5 5 6 6 6 6 6 6 6 6 6 6 7 7 7 7 8 8 8 9 9 9 10 11 12 12 13 13 12 12 12 12 12 12 11 10 9 8 8 8 8
14 14 14 14 14 14 13 13 13 12 12 12 12 12 11 11 11 11 10 10 10 10 9 9 8 8 7 7 7 7 7 7 7 6 6 6 6 6 6 6 6 6 5 5 5 5 5 5 5 6 6 6 6 6 6 6 6 6 6 7 8 8 9 9 9 9 10 10 10 11 12 13 13 13 12 13 12 11 10 10 9 9 8 9 9
14 14 14 14 14 14 13 13 13 12 12 12 12 12 11 11 11 11 10 10 10 9 9 8 8 7 7 7 7 6 6 6 6 6 6 6 6 6 6 6 5 5 5 5 5 5 5 5 5 5 5 5 6 6 6 6 6 6 6 6 7 8 8 9 10 10 10 10 10 10 11 12 13 13 13 13 12 12 11 10 10 9 9 9 9
14 14 14 14 14 14 13 13 13 13 12 12 12 12 11 11 11 10 10 10 9 8 8 7 7 7 6 6 6 6 6 6 6 6 6 6 5 5 5 5 5 4 4 4 4 4 4 4 4 4 5 5 5 5 5 5 6 6 6 6 6 7 7 8 9 10 11 11 11 11 11 12 12 13 13 13 12 12 12 11 11 10 9 8 8
13 13 14 14 14 14 13 13 13 13 12 12 12 12 11 11 11 10 10 9 8 8 7 7 6 6 6 6 5 5 5 5 5 5 5 5 5 5 5 4 4 4 4 4 4 4 4 4 4 4 4 4 5 5 5 5 5 5 5 5 5 6 6 7 8 8 9 10 11 12 12 13 13 12 13 13 13 12 11 10 10 9 8 8 8
12 13 13 14 14 13 13 13 13 13 12 12 12 11 11 11 10 9 9 8 8 7 7 7 6 6 6 5 5 5 5 5 5 5 4 4 4 4 4 4 4 4 3 3 3 3 3 4 4 4 4 4 4 4 5 5 5 5 5 5 5 5 5 6 7 8 8 9 10 11 12 13 13 13 13 13 13 12 10 9 9 8 8 8 7
12 13 13 14 13 13 13 13 13 12 12 12 11 11 10 10 9 9 9 8 8 7 7 6 6 6 5 5 5 5 5 4 4 4 4 4 4 4 4 3 3 3 3 3 3 3 3 3 3 3 4 4 4 4 4 4 4 5 5 5 5 5 5 5 6 7 8 9 10 11 11 12 13 13 13 13 13 12 11 10 10 9 8 8 8
13 13 14 13 13 13 13 13 12 12 11 11 11 10 10 9 9 9 8 8 7 7 6 6 6 6 6 5 5 4 4 4 4 4 4 4 4 3 3 3 2 2 2 2 2 2 2 3 3 3 3 3 4 4 4 4 4 4 4 5 5 5 5 5 6 7 8 9 9 10 11 12 12 13 13 13 13 13 12 12 11 9 9 9 8
13 14 13 13 13 13 13 12 12 12 11 11 10 10 10 9 9 9 8 8 7 7 7 6 6 6 5 5 4 4 4 4 4 3 3 3 3 3 3 2 2 2 2 2 2 2 2 2 2 3 3 3 3 4 4 4 4 4 4 4 5 5 5 5 5 6 7 7 8 8 9 10 12 12 12 12 12 12 13 12 12 11 10 10 8
13 13 12 13 13 12 12 12 11 11 11 11 10 10 9 9 9 8 8 7 7 7 6 6 6 5 5 5 4 4 4 3 3 3 3 3 3 3 2 2 2 1 1 1 1 1 1 1 2 2 2 3 3 3 3 4 4 4 4 4 4 5 5 5 5 5 6 6 6 6 7 8 10 11 12 12 12 12 12 12 12 12 11 11 9
13 12 12 12 12 12 12 11 11 11 11 10 10 9 9 9 9 8 8 7 7 6 6 6 5 5 5 4 4 3 3 3 2 2 2 2 2 2 2 1 1 1 1 0 0 1 1 1 1 1 2 2 2 3 3 3 4 4 4 4 4 4 5 5 5 5 5 5 5 5 6 7 9 11 11 11 12 11 11 11 11 12 12 12 11
12 13 12 12 12 12 12 11 11 11 10 10 10 10 9 9 8 8 7 7 7 6 6 5 5 4 4 4 3 3 2 2 2 1 1 1 1 1 1 1 0 0 -0 -0 -0 0 0 0 1 1 1 1 2 2 3 3 3 3 4 4 4 4 4 4 4 4 4 4 4 5 5 7 9 10 11 11 11 11 11 11 11 11 11 11 11
13 12 12 12 12 12 12 11 11 10 10 10 10 10 10 9 8 8 7 7 6 6 5 5 4 4 3 3 2 2 1 1 1 1 0 0 0 0 -0 -0 -0 -0 -1 -1 -1 -0 -0 -0 -0 -0 0 0 1 1 2 2 3 3 3 3 4 4 4 4 4 4 4 4 4 5 5 7 9 10 11 11 10 10 10 10 10 10 10 10 10
13 12 12 12 12 12 11 11 11 11 10 10 10 10 10 9 8 8 7 7 6 5 5 4 3 3 2 2 2 1 1 1 0 -0 -0 -0 -1 -1 -1 -1 -1 -1 -1 -1 -1 -1 -1 -1 -1 -1 -0 -0 -0 0 1 1 2 3 3 3 3 3 3 4 4 3 4 4 4 5 6 7 8 10 11 10 9 9 9 9 9 9 9 9 9
12 12 12 12 12 11 11 11 11 10 10 10 10 10 9 9 8 8 7 6 5 5 4 3 3 2 1 1 1 1 0 0 -0 -1 -1 -1 -1 -1 -1 -1 -1 -1 -1 -1 -1 -1 -1 -1 -1 -1 -1 -1 -1 -0 0 1 2 2 2 3 3 3 3 3 3 3 4 4 5 5 6 7 8 9 9 9 8 8 8 8 8 8 8 8 8
12 12 12 12 12 11 11 11 11 10 10 10 10 9 9 9 8 8 7 6 5 4 3 3 2 1 1 1 0 0 -0 -0 -1 -1 -1 -1 -1 -1 -2 -2 -2 -2 -2 -2 -1 -1 -1 -1 -1 -0 -0 -0 -0 -0 -0 0 1 2 2 2 3 3 3 3 4 4 4 4 5 6 7 7 8 8 8 8 8 8 8 8 8 7 7 8 7
12 12 12 11 11 11 11 11 11 10 10 10 9 9 9 9 8 8 7 6 5 4 3 2 2 1 1 1 0 -0 -1 -1 -1 -1 -1 -1 -2 -2 -2 -2 -2 -2 -2 -2 -1 -1 -1 -1 -0 -0 0 0 0 0 0 0 1 1 2 2 3 3 3 4 4 4 4 5 6 6 7 7 7 7 7 7 7 7 7 8 7 7 7 7 6
12 12 11 11 11 11 11 11 11 10 10 9 9 9 9 8 8 7 7 6 5 4 3 2 2 1 1 1 -0 -1 -1 -1 -1 -1 -1 -1 -2 -2 -2 -2 -2 -2 -2 -1 -1 -1 -1 -1 -0 0 0 1 1 1 1 1 1 1 2 2 3 4 4 4 4 4 5 6 6 6 6 6 6 6 6 5 5 6 6 7 7 6 6 6 5
12 11 11 11 11 11 11 11 10 10 9 9 9 9 8 8 7 7 7 6 5 4 4 3 2 2 2 1 0 -0 -1 -1 -1 -1 -1 -1 -1 -2 -2 -2 -2 -2 -1 -1 -1 -1 -1 -0 0 0 1 1 1 1 1 1 1 2 2 3 3 4 4 4 4 5 5 6 6 6 6 5 5 4 4 4 4 4 5 6 6 6 6 5 4
11 11 11 11 11 11 11 10 10 9 9 9 9 9 8 7 7 7 6 6 5 5 4 4 4 4 2 1 0 -0 -1 -1 -1 -1 -1 -1 -1 -2 -2 -2 -1 -1 -1 -1 -1 -1 -0 1 1 1 1 1 1 1 1 2 2 2 2 3 3 4 4 4 5 5 6 6 6 6 5 5 4 4 4 4 3 4 4 5 5 5 5 4 3
11 11 11 11 11 11 11 10 10 9 9 9 9 8 8 7 7 6 6 6 5 5 5 5 5 4 3 1 1 -0 -1 -1 -1 -1 -1 -1 -2 -2 -2 -1 -1 -1 -1 -1 -1 -0 1 2 2 2 1 2 2 2 2 2 2 3 3 3 3 4 4 4 5 5 6 6 5 5 4 4 4 3 3 3 3 3 3 3 4 4 4 3 3
11 11 11 11 11 11 10 10 10 9 9 9 9 8 7 7 7 7 6 6 6 5 5 5 5 4 3 2 1 -0 -1 -1 -1 -1 -1 -1 -2 -2 -2 -1 -1 -1 -1 -1 -1 -0 1 2 2 2 2 2 2 2 3 3 3 3 3 3 4 4 4 5 5 5 6 5 5 4 4 3 3 2 2 3 3 2 2 2 3 3 2 2 2
12 12 11 11 11 10 10 10 10 9 9 9 8 8 7 7 7 7 7 6 6 6 6 5 5 4 3 2 1 0 -0 -1 -1 -1 -1 -2 -2 -2 -2 -1 -1 -1 -1 -1 -1 -1 0 1 2 2 3 3 3 3 3 3 3 3 3 3 4 4 5 5 5 5 5 5 4 3 3 3 2 2 2 2 2 2 2 2 2 2 2 2 2
12 12 11 11 10 10 10 10 9 9 9 9 8 8 8 8 7 7 7 6 6 6 6 5 5 4 3 2 2 1 0 -1 -1 -1 -1 -2 -2 -2 -2 -2 -2 -1 -1 -1 -1 -1 -1 -0 1 2 2 3 3 3 3 3 3 3 3 3 4 4 4 4 4 4 4 4 3 3 2 2 2 2 2 2 2 2 1 1 2 2 2 2 2
12 11 11 10 10 10 10 9 9 9 9 8 8 8 8 8 8 7 7 6 6 6 6 5 5 4 3 3 2 1 0 -0 -1 -1 -1 -2 -2 -2 -2 -2 -2 -2 -2 -2 -2 -1 -1 -1 -0 1 1 2 2 3 3 3 3 2 2 2 3 3 3 3 3 3 3 3 3 2 2 2 2 2 2 2 2 2 1 2 2 2 2 2 2
11 11 10 10 10 10 9 9 9 9 9 8 8 8 8 8 8 7 7 7 6 6 6 5 5 4 3 3 2 1 1 -0 -1 -1 -2 -2 -2 -2 -3 -2 -2 -2 -2 -2 -2 -2 -2 -1 -1 -0 0 1 2 2 2 2 2 2 2 2 2 2 2 2 3 3 3 2 2 2 2 2 2 2 2 2 2 2 2 2 2 2 2 3 3
10 10 10 10 9 9 9 9 9 9 8 8 9 9 8 8 8 8 7 7 7 6 6 5 4 4 3 2 2 1 1 -0 -1 -1 -2 -2 -2 -3 -3 -3 -3 -2 -2 -2 -2 -2 -2 -2 -1 -1 -1 -0 1 1 2 2 2 2 2 2 2 2 2 2 2 2 2 2 2 2 2 1 2 2 2 2 2 2 2 2 2 2 2 3 2
10 10 10 9 9 9 9 9 9 9 8 8 8 9 8 8 8 8 7 7 7 6 6 5 5 4 3 2 1 1 0 -1 -1 -2 -2 -2 -2 -3 -3 -3 -3 -3 -3 -3 -2 -2 -2 -2 -2 -1 -1 -1 -0 0 1 1 1 1 2 2 1 1 1 1 1 1 1 1 1 1 1 1 2 2 2 2 2 2 2 2 2 2 2 2 2
10 10 9 9 9 9 9 9 9 9 9 8 9 9 9 8 8 8 8 7 7 6 6 5 5 4 3 2 1 1 -0 -1 -2 -2 -2 -2 -2 -3 -3 -3 -3 -3 -3 -3 -3 -3 -2 -2 -2 -2 -2 -1 -1 -1 -0 0 1 1 1 1 1 1 1 1 1 1 1 1 1 1 2 2 2 2 2 2 2 2 2 2 2 2 2 2 2
10 9 9 9 9 9 9 9 9 9 9 8 8 9 9 8 8 8 8 8 7 6 6 6 5 4 4 2 2 1 0 -1 -2 -2 -2 -2 -2 -3 -3 -3 -3 -3 -3 -3 -3 -3 -3 -3 -2 -2 -2 -2 -1 -1 -1 -0 -0 0 0 0 1 1 1 1 1 1 1 1 2 2 2 2 2 2 2 2 2 2 2 2 2 2 2 1 1
10 9 9 9 9 9 9 9 9 9 9 9 9 9 9 9 8 8 8 8 7 7 6 6 5 5 4 3 2 2 1 -0 -1 -2 -2 -2 -2 -3 -3 -3 -3 -3 -3 -3 -3 -3 -3 -3 -3 -2 -2 -2 -2 -2 -1 -1 -1 -1 -0 -0 -0 0 0 1 1 1 1 2 2 2 2 2 2 2 2 2 2 2 2 1 1 1 1 1 1
10 9 9 9 9 9 9 9 9 9 9 9 9 9 9 9 9 9 9 8 8 7 6 6 5 5 4 3 3 2 1 0 -1 -1 -2 -2 -3 -3 -3 -3 -3 -3 -3 -3 -3 -3 -3 -3 -3 -3 -3 -2 -2 -2 -2 -2 -1 -1 -1 -1 -1 -0 -0 0 1 1 1 2 2 2 2 2 2 2 2 2 2 1 1 1 1 1 1 1 2
9 9 9 9 9 9 9 9 9 9 9 9 9 9 8 8 8 8 8 8 8 7 7 6 6 5 4 4 3 2 1 1 0 -1 -2 -2 -3 -3 -3 -3 -3 -3 -3 -3 -3 -3 -3 -3 -3 -3 -3 -3 -2 -2 -2 -2 -2 -2 -1 -1 -1 -1 -0 -0 0 1 1 1 1 1 2 1 1 1 1 1 1 1 1 1 1 1 2 2 2
8 8 8 9 9 8 8 8 9 9 8 8 8 8 7 7 6 7 7 7 7 7 7 6 6 5 4 4 3 2 2 1 1 -0 -1 -2 -2 -3 -3 -3 -3 -3 -3 -3 -3 -3 -3 -3 -3 -3 -3 -3 -3 -3 -2 -2 -2 -2 -2 -1 -1 -1 -1 -0 0 0 1 1 1 1 1 1 1 1 1 1 1 1 1 1 2 2 2 2 2
7 7 7 7 7 7 7 7 7 7 7 6 6 6 6 5 5 5 6 6 6 7 7 6 6 5 5 4 4 3 2 1 1 0 -0 -1 -2 -2 -3 -3 -3 -3 -3 -3 -3 -3 -3 -3 -3 -3 -3 -3 -3 -3 -3 -2 -2 -2 -2 -1 -1 -1 -1 -0 0 0 1 1 1 1 1 1 1 1 1 1 1 1 2 2 2 2 2 2 2
6 6 6 6 6 5 5 5 5 5 5 4 4 4 4 4 4 4 5 5 5 5 5 5 5 5 5 4 4 3 3 2 1 1 0 -0 -1 -2 -2 -3 -3 -3 -3 -3 -3 -3 -3 -3 -3 -3 -3 -3 -3 -3 -3 -3 -2 -2 -2 -1 -1 -1 -1 -0 0 0 0 0 1 0 0 0 1 1 1 1 1 1 1 1 1 2 1 1 1
5 5 5 5 5 4 4 4 4 3 3 3 2 2 2 2 2 3 3 3 3 3 4 4 4 4 4 4 4 3 3 2 2 1 1 0 -0 -1 -2 -2 -2 -3 -3 -3 -3 -3 -3 -3 -3 -3 -3 -3 -3 -3 -3 -2 -2 -2 -2 -1 -1 -1 -1 -0 -0 -0 -0 0 0 0 -0 -0 0 0 1 1 1 1 1 1 1 1 1 1 2
4 4 4 4 3 3 3 3 3 2 2 2 1 1 1 1 1 1 1 2 2 2 2 2 2 2 2 3 3 3 3 3 2 2 1 1 0 -1 -1 -2 -2 -2 -2 -3 -3 -3 -3 -3 -3 -3 -3 -3 -3 -3 -3 -3 -2 -2 -2 -2 -1 -1 -1 -1 -1 -1 -0 -0 -0 -0 -0 -0 -0 0 0 0 0 0 0 1 1 1 1 2 2
3 3 3 3 3 2 2 2 1 1 1 1 0 -0 -0 -1 -1 -0 -0 0 1 1 1 1 1 1 1 1 2 2 3 3 2 2 1 1 1 0 -0 -1 -1 -2 -2 -2 -2 -3 -3 -3 -3 -3 -3 -3 -3 -3 -3 -3 -2 -2 -2 -2 -1 -1 -1 -1 -1 -0 -0 -0 -0 -0 -0 -0 -0 -0 0 0 0 0 1 1 1 2 2 2 2
2 2 2 2 2 2 1 1 1 0 -0 -0 -1 -1 -1 -1 -1 -2 -2 -1 -1 -1 -1 -0 0 0 0 0 1 1 2 2 2 2 2 1 1 1 1 -0 -1 -1 -2 -2 -2 -2 -2 -2 -2 -2 -2 -2 -3 -3 -3 -3 -3 -3 -2 -2 -2 -1 -1 -1 -1 -1 -0 -0 -0 -0 -0 -1 -1 -1 -1 -0 -0 0 0 1 1 2 2 2 2
Height
781 784 785 787 789 791 793 794 796 797 798 800 800 801 802 803 804 805 806 806 807 807 808 808 808 808 808 808 808 809 809 809 809 809 808 808 808 808 807 807 807 806 806 806 805 805 804 803 802 801 801 800 798 797 796 795 795 794 794 794 794 795 795 795 795 793 791 793 795 795 795 794 794 794 794 794 795 794 794 795 797 800 802 804 807
778 780 782 785 786 788 790 792 793 795 796 798 799 800 801 802 803 804 804 805 805 805 806 806 806 806 806 806 806 806 807 806 807 807 806 806 806 805 805 805 805 804 804 803 803 803 802 801 800 799 799 798 796 796 795 794 793 792 791 791 791 791 792 792 793 791 789 789 792 792 793 792 791 792 793 793 793 792 791 793 795 797 799 801 804
775 777 780 782 783 785 788 790 791 793 794 796 797 798 799 800 801 802 802 803 803 804 804 804 804 804 804 804 804 804 805 805 805 805 804 804 803 803 803 803 803 802 802 801 801 801 800 799 798 797 797 796 794 794 793 792 792 790 789 788 787 787 788 789 790 789 786 786 788 789 790 790 789 790 791 792 792 792 791 792 793 794 796 799 801
773 775 777 779 781 784 786 787 789 791 793 794 795 797 798 799 800 800 801 801 801 802 802 802 802 802 802 802 802 802 803 802 803 803 802 802 802 801 801 801 801 800 800 799 799 799 798 797 796 795 795 794 793 792 791 790 790 789 787 786 785 784 784 785 785 785 784 784 784 785 786 786 787 787 788 790 791 792 792 792 792 792 794 796 798
770 773 775 777 779 781 783 785 787 789 791 792 794 795 797 798 798 799 799 799 800 800 800 800 801 801 801 801 801 801 800 800 800 800 800 800 799 799 799 799 798 798 797 797 796 796 796 795 794 794 793 792 791 790 789 788 787 787 786 785 784 783 782 781 781 781 782 781 781 781 782 782 783 783 784 785 788 790 792 792 792 791 792 794 796
767 769 772 774 776 779 781 783 785 787 789 791 793 794 795 796 797 797 797 798 798 798 798 799 799 799 799 799 799 799 799 799 798 798 798 798 797 797 797 796 796 795 795 794 794 794 793 793 792 792 791 790 789 788 787 786 785 784 784 783 782 782 780 779 778 777 777 777 777 778 779 779 778 779 780 781 783 785 788 791 792 792 791 792 794
763 766 769 771 774 776 779 781 783 786 788 790 791 792 793 794 795 795 796 796 796 797 797 797 797 797 797 797 797 797 797 797 797 796 796 795 795 795 794 794 793 793 792 791 791 791 790 790 790 789 789 788 787 787 786 785 783 782 782 781 781 780 778 777 776 775 774 773 773 774 775 775 774 774 775 777 780 782 784 787 790 791 790 789 791
761 764 766 769 772 774 777 779 782 784 787 788 790 791 792 793 793 794 794 794 794 795 795 795 795 796 795 795 795 795 795 795 795 795 794 793 793 792 791 791 790 790 789 788 788 787 787 786 786 786 786 785 785 785 784 784 782 780 779 780 779 778 777 775 774 773 771 770 769 769 770 771 771 771 773 775 778 780 780 781 783 785 787 788 789
758 761 764 766 769 773 776 778 781 783 785 787 789 790 790 791 792 792 792 792 793 793 793 794 794 794 794 793 793 793 793 793 793 793 792 792 791 790 789 789 788 787 786 785 785 784 784 783 782 782 782 782 782 782 781 782 781 779 777 777 777 777 775 774 773 771 770 768 767 766 767 768 769 769 771 772 772 774 776 779 780 781 785 788 789
755 758 761 764 768 771 775 777 780 782 784 786 787 788 789 790 790 790 790 791 791 792 792 792 792 792 792 791 791 791 791 791 791 791 791 790 789 788 787 786 785 784 783 782 781 781 780 780 779 779 779 778 778 778 778 778 778 778 776 775 775 775 774 773 771 770 769 767 765 764 764 764 765 766 766 766 768 770 773 776 778 779 783 786 788
753 755 759 763 767 770 773 776 779 781 783 785 786 787 788 788 788 789 789 790 790 790 790 790 790 790 790 789 789 789 789 789 789 789 789 788 787 786 784 783 782 781 780 779 778 777 777 776 775 775 774 774 774 774 774 774 773 773 773 772 772 772 771 770 769 768 768 766 764 763 761 760 761 763 763 763 765 767 768 771 773 776 779 781 783
754 756 758 762 765 769 772 775 778 780 782 784 785 786 787 787 787 788 788 788 789 789 789 789 788 788 788 788 788 787 787 787 786 786 786 785 785 783 782 780 779 778 777 776 775 774 773 772 772 771 770 770 770 770 770 770 769 769 768 767 767 766 766 766 765 764 764 764 762 761 759 759 759 759 759 760 761 763 764 766 769 771 773 773 774
758 758 760 762 765 768 771 774 777 779 781 783 784 785 785 786 786 787 787 787 788 787 787 787 787 787 786 786 786 785 785 784 784 783 783 782 781 780 778 777 775 774 773 772 771 770 769 769 768 766 766 766 766 765 765 765 765 765 764 762 761 760 760 760 760 759 759 760 759 757 756 758 757 756 756 756 757 759 762 764 765 766 766 766 766
760 761 762 763 765 767 771 774 777 779 780 782 783 783 784 784 785 785 786 786 786 786 786 785 785 785 785 784 784 783 782 782 781 781 780 779 778 776 775 773 771 770 769 768 767 766 765 765 763 762 762 762 761 761 761 761 761 760 759 758 756 755 754 753 753 753 753 753 753 751 752 754 754 753 755 755 754 755 756 758 759 760 761 762 764
758 762 763 764 765 767 771 774 777 778 779 780 781 782 783 783 783 784 785 785 785 785 785 784 784 784 783 782 781 780 780 779 778 778 777 776 775 773 771 770 768 766 765 764 763 762 761 760 759 757 757 757 757 758 757 757 757 755 754 753 752 750 749 748 748 748 747 747 746 745 746 748 749 750 752 753 752 752 752 751 752 756 760 763 766
754 761 763 763 764 767 770 774 776 778 779 779 780 781 782 782 782 783 784 784 784 784 783 783 782 782 781 780 779 778 777 776 776 775 774 773 771 769 767 765 764 762 760 759 758 757 756 755 754 753 752 751 752 753 753 754 752 750 749 748 747 746 742 741 743 743 743 742 741 740 740 741 743 745 747 748 749 752 754 755 756 758 761 764 766
753 759 761 761 763 766 770 773 775 777 778 778 779 780 780 781 781 782 783 783 782 782 782 781 781 780 779 778 777 775 774 773 773 771 770 769 768 766 764 761 759 757 755 755 753 751 751 750 749 747 746 745 746 747 749 749 747 745 744 742 742 740 737 736 738 738 738 738 737 736 735 735 736 739 741 743 744 747 751 755 757 759 759 761 763
750 756 758 759 762 765 769 772 774 776 777 777 778 779 779 780 780 780 781 781 781 781 780 780 779 778 777 776 774 773 771 770 769 768 767 766 764 762 760 757 755 753 751 749 748 746 744 744 743 742 740 740 741 742 743 743 741 740 739 738 736 734 732 733 735 733 733 733 732 731 730 730 731 733 734 737 739 741 743 747 751 755 756 757 758
748 751 754 757 761 765 769 771 773 775 776 776 777 777 778 778 779 779 779 780 780 779 778 777 776 775 774 773 771 770 767 766 765 764 762 762 760 759 757 754 751 749 747 744 742 740 738 737 736 736 735 734 735 736 737 738 736 734 735 734 730 726 727 732 732 731 730 729 727 726 725 725 726 727 729 731 733 733 735 738 742 746 749 752 754
745 748 752 757 762 766 768 770 771 773 775 775 776 776 777 777 778 778 778 778 778 777 776 775 773 772 771 769 768 766 764 762 761 760 758 757 756 755 753 751 748 745 742 739 736 734 732 731 729 729 729 729 729 729 730 731 730 729 730 728 723 721 725 729 729 728 727 725 723 722 722 721 721 721 723 725 726 727 729 731 734 737 741 745 748
743 748 754 758 762 765 767 768 770 772 774 775 775 775 775 776 776 776 776 776 775 774 773 772 770 768 767 766 764 762 761 758 756 755 754 753 752 750 749 747 745 742 738 735 732 729 726 725 723 722 723 722 722 723 723 723 723 723 722 720 718 720 724 725 724 725 725 722 721 720 719 718 717 716 716 718 720 721 723 725 727 730 733 737 740
744 749 754 758 762 764 766 767 769 772 773 774 774 774 774 774 774 774 774 773 772 771 770 769 767 766 764 763 761 759 757 755 753 751 750 748 747 746 744 742 741 738 734 730 727 724 721 719 717 716 717 717 716 716 716 716 716 715 714 714 715 718 720 719 720 721 720 719 719 718 716 716 714 712 712 712 714 716 719 721 722 725 728 731 733
745 750 754 758 761 763 765 766 769 771 772 772 773 772 772 772 772 772 772 771 770 769 768 766 765 764 762 760 758 755 753 751 749 747 746 744 742 741 739 737 736 734 730 725 721 718 715 713 711 710 710 710 710 710 709 709 709 708 708 710 712 714 715 715 715 716 715 715 715 714 713 713 711 708 707 708 709 711 714 717 720 723 726 730 732
746 751 754 757 760 762 764 766 768 770 771 771 771 771 771 771 771 771 770 769 768 767 766 765 764 762 759 756 754 751 749 747 745 743 741 739 737 736 734 732 730 728 724 720 716 712 709 706 704 703 703 702 702 703 702 702 702 702 703 705 707 708 710 709 709 710 711 711 710 709 709 709 707 705 704 704 705 707 711 715 719 722 726 729 731
746 750 753 756 759 762 764 766 768 769 770 770 770 770 770 770 770 769 768 767 766 765 764 763 762 759 757 753 750 747 745 743 741 739 737 735 732 730 728 726 723 721 718 714 710 706 702 699 697 695 694 693 694 694 694 694 694 695 697 699 701 702 703 703 703 705 705 705 704 704 704 704 704 702 701 701 703 706 709 713 717 721 725 728 731
746 750 753 757 760 762 764 765 767 768 768 769 769 769 769 769 768 768 766 765 765 764 762 761 759 757 754 751 747 744 742 739 737 734 732 729 726 724 722 719 716 714 710 706 702 698 694 692 689 687 685 684 684 685 685 685 687 689 691 693 695 695 696 697 698 699 699 699 700 700 699 700 701 700 698 699 702 704 705 709 714 719 722 726 730
747 751 755 758 760 762 763 764 766 766 766 767 767 768 768 767 767 766 765 764 763 762 760 759 757 755 752 748 744 742 739 736 733 730 727 724 721 718 716 712 710 707 703 699 695 691 687 684 682 679 677 676 676 676 677 678 680 681 683 686 687 688 689 691 693 693 694 695 695 696 697 698 698 697 696 697 700 702 704 706 710 715 720 723 728
749 753 755 758 759 761 762 763 764 765 765 766 766 766 766 766 765 764 763 762 761 759 758 757 755 753 749 745 742 739 736 733 730 726 723 720 716 713 710 707 704 700 696 692 688 684 681 678 675 672 670 669 669 669 670 671 672 674 676 678 680 682 683 685 687 688 689 690 691 692 693 695 695 695 695 696 698 700 703 705 708 712 717 720 725
750 753 755 757 759 761 762 763 764 764 764 764 765 764 764 764 763 762 761 760 759 757 756 755 754 751 747 744 741 737 733 729 727 724 721 717 714 710 706 703 699 695 690 687 683 679 675 672 669 666 664 663 663 663 663 664 665 667 670 672 674 676 677 679 680 681 683 685 686 687 689 691 693 694 694 695 697 699 702 704 707 711 716 719 722
751 753 755 757 759 760 761 762 763 763 763 763 763 762 762 762 762 761 759 758 757 756 754 753 751 748 745 743 740 736 732 727 724 721 717 714 711 707 703 699 694 689 685 681 678 674 670 666 662 660 659 658 657 657 658 659 660 662 663 666 668 671 672 673 674 676 678 680 681 683 686 688 691 692 693 694 696 699 702 704 707 710 714 717 722
752 754 756 757 758 759 760 761 762 762 762 762 761 761 761 761 760 759 758 757 755 754 753 751 749 747 744 741 737 734 730 726 722 718 714 710 707 703 698 694 689 684 680 676 673 669 665 661 657 655 654 653 652 653 654 655 656 657 658 661 663 665 666 668 669 671 673 675 677 680 682 685 688 690 691 692 695 699 702 705 708 711 713 716 720
753 755 756 757 758 759 760 760 761 761 761 761 761 761 761 760 759 758 757 755 754 752 751 749 747 745 743 739 735 731 727 723 719 715 711 707 703 698 694 689 684 680 676 672 668 664 660 657 653 651 650 650 649 650 651 651 652 653 654 656 657 658 659 661 663 665 667 670 673 677 680 682 685 688 689 691 694 698 702 705 709 712 715 718 721
753 754 755 756 757 758 759 760 760 761 761 761 760 760 760 759 758 756 755 754 752 751 750 748 746 743 741 738 734 730 725 721 717 713 708 704 700 695 690 686 681 677 674 670 666 662 658 654 651 649 648 647 647 648 648 648 649 650 650 651 652 652 653 654 657 660 663 666 669 673 677 680 683 686 689 691 694 698 702 706 709 712 716 720 724
752 753 754 756 757 758 759 759 760 760 760 760 759 760 759 758 756 755 753 752 751 750 748 746 744 742 739 736 732 728 723 719 715 711 707 703 698 694 689 684 679 676 673 669 666 662 658 654 651 649 647 646 646 646 646 646 646 647 647 648 648 648 649 651 655 658 661 664 668 671 675 679 682 685 688 691 695 699 703 707 710 713 717 720 724
751 752 754 756 757 758 759 759 759 758 758 758 758 759 758 756 755 754 752 751 749 748 746 744 742 740 737 734 730 726 722 718 714 710 706 702 697 692 688 683 679 675 672 669 666 663 659 656 653 650 648 646 645 645 645 645 645 645 646 646 647 647 649 651 653 657 660 663 667 670 674 678 681 684 687 690 694 699 703 707 711 714 718 722 726
750 752 754 756 757 758 758 758 758 757 757 757 758 757 756 755 754 752 751 750 748 746 744 743 741 739 736 733 730 726 722 718 714 710 706 702 697 692 688 684 681 678 675 671 668 664 661 658 655 653 650 648 647 646 645 645 645 645 646 647 648 648 649 651 653 656 659 663 667 670 674 678 681 684 687 691 695 699 703 707 711 715 719 723 728
751 752 754 756 757 757 757 757 757 757 756 756 757 756 755 754 753 751 750 748 747 745 744 742 740 737 735 732 729 726 721 717 714 710 706 702 697 694 690 687 684 681 677 674 670 667 664 660 658 655 653 650 649 647 646 646 646 646 647 649 650 651 652 653 655 656 659 663 667 671 674 678 681 684 687 692 696 700 704 709 713 717 721 725 729
753 754 755 756 756 756 755 756 756 756 756 756 756 755 754 753 752 750 749 747 746 745 743 741 739 736 733 731 729 725 721 717 713 709 705 702 698 695 692 689 686 683 680 676 673 670 666 663 660 657 655 653 651 650 649 648 648 648 649 650 652 654 655 657 658 660 661 664 668 672 676 679 682 685 688 693 697 701 705 710 714 719 723 727 731
753 754 755 755 755 755 755 755 756 756 755 755 755 754 753 752 751 749 748 747 746 745 743 741 739 736 734 732 729 726 721 717 713 710 707 704 701 698 695 692 689 686 682 679 676 672 669 666 663 660 658 656 654 653 652 651 650 651 651 652 654 657 659 661 662 664 666 668 670 674 678 682 685 688 692 695 699 703 707 711 716 720 725 729 733
753 754 754 754 755 755 755 755 755 755 754 754 754 753 752 751 750 749 747 746 745 744 743 741 739 737 735 733 730 727 723 719 716 713 710 707 704 701 697 694 691 688 685 682 679 675 672 669 666 664 661 659 658 656 655 654 654 654 654 655 656 659 662 664 666 668 670 672 674 677 681 684 687 691 695 698 702 705 708 713 718 723 727 731 736
753 754 754 754 755 755 755 755 754 754 754 754 753 752 752 751 750 748 747 746 745 744 743 741 740 738 736 734 732 729 726 722 719 716 712 709 706 703 700 697 694 691 688 685 682 679 676 672 670 667 665 663 662 661 660 659 658 658 658 659 660 662 665 668 670 672 674 676 678 681 684 687 689 693 696 700 704 708 712 716 720 725 730 735 739
754 754 754 754 755 755 755 754 754 753 753 753 752 752 751 750 749 748 747 746 745 745 743 742 740 738 736 734 732 730 727 723 720 717 714 712 709 705 702 699 696 693 691 688 685 682 679 676 674 672 669 668 667 665 664 664 663 663 663 663 663 665 667 671 674 675 677 680 682 685 687 689 692 695 698 702 705 710 715 720 724 729 733 738 742
754 754 754 754 755 754 754 754 754 753 753 752 752 751 750 749 748 748 747 746 745 745 744 742 740 739 737 735 733 731 728 724 722 719 716 713 711 708 705 702 699 696 694 691 688 686 683 681 678 676 674 673 672 670 670 669 669 668 668 668 668 669 671 674 677 679 681 684 686 689 690 693 695 698 701 705 709 713 719 724 729 733 738 742 745
754 754 754 754 755 755 754 754 754 753 753 752 752 751 751 750 749 748 748 747 746 745 744 743 741 740 738 736 734 731 729 726 724 721 718 715 713 711 708 705 702 700 697 695 692 690 688 685 683 681 679 678 677 675 674 674 674 674 674 674 674 674 676 678 680 683 685 687 690 692 694 697 700 703 706 709 713 718 723 728 732 737 740 743 746
755 755 755 756 756 756 755 754 754 754 753 753 752 752 751 751 750 749 749 748 746 745 745 743 742 741 739 737 735 733 730 728 726 723 720 718 716 714 711 709 706 704 701 699 697 695 692 690 688 686 685 684 682 681 680 679 679 679 679 679 679 680 681 683 685 687 689 691 694 696 698 701 704 707 711 714 718 722 726 731 735 739 742 744 747
756 757 757 757 757 757 757 756 755 755 754 754 753 752 752 752 751 751 750 749 747 747 746 744 743 742 740 738 736 734 732 731 728 726 723 721 718 716 714 712 710 708 706 704 702 700 697 695 693 692 691 689 688 687 686 685 685 685 685 685 685 686 687 688 690 691 693 695 697 700 702 705 708 712 715 719 722 726 730 734 737 740 743 746 750
758 758 759 759 759 758 758 757 757 756 756 756 755 754 754 753 752 751 751 750 749 748 747 745 744 743 741 740 738 736 734 733 731 728 726 724 721 719 717 715 714 712 710 708 706 704 702 700 699 697 696 695 694 693 692 692 691 691 691 691 691 691 692 694 695 696 698 700 702 704 706 709 712 716 719 723 726 729 733 736 739 742 745 749 753
761 761 761 760 760 760 760 759 759 759 758 758 757 756 755 755 754 753 752 751 750 749 748 747 745 744 743 742 740 738 737 735 733 731 729 727 725 723 721 718 717 715 714 712 711 709 707 706 704 703 702 701 699 699 698 698 698 698 698 698 698 698 698 699 700 702 704 705 707 709 712 714 718 721 724 728 731 734 736 740 743 746 750 753 757
763 763 763 763 763 763 762 762 761 761 761 760 759 758 757 756 756 755 754 753 752 751 749 748 747 746 745 743 742 740 739 737 735 733 731 729 728 726 724 722 721 719 718 716 715 714 712 711 710 708 707 706 705 704 704 704 704 704 705 705 705 705 705 705 706 708 709 711 713 715 717 720 724 727 730 733 735 738 741 744 747 750 753 756 759
766 766 766 765 765 765 765 764 763 763 763 762 760 759 759 758 758 757 756 755 754 752 751 750 748 747 746 745 743 742 740 738 737 736 734 732 731 729 727 726 724 723 721 720 719 718 717 716 715 714 713 712 711 710 710 710 710 710 711 711 711 711 711 712 713 714 715 717 718 721 723 726 729 732 734 737 740 743 745 748 751 753 756 759 761
768 768 768 768 768 767 767 766 765 765 764 763 762 762 761 760 760 759 758 757 756 754 753 752 750 749 748 746 745 744 742 740 739 738 737 735 733 731 730 729 727 726 725 724 723 723 722 721 720 719 718 717 717 716 716 716 716 716 716 716 716 717 717 718 719 720 721 723 725 727 729 731 733 736 739 742 744 747 749 752 754 757 759 761 763
Wind_Speed
33 33 32 31 30 28 27 26 25 23 23 22 20 19 18 16 13 12 12 12 12 12 12 11 11 11 12 13 15 15 15 15 15 15 16 16 17 18 19 19 19 20 21 21 21 22 23 23 24 24 24 24 24 23 23 25 27 29 28 29 28 26 25 23 15 13 22 25 24 22 20 18 19 20 24 29 33 36 37 37 37 35 34 38 40
36 35 33 32 30 29 28 26 25 24 24 23 21 19 17 15 13 12 12 13 12 12 12 12 12 14 15 16 15 15 15 15 14 14 15 16 18 19 20 20 20 20 21 22 22 22 22 24 25 26 25 26 26 25 23 23 24 27 29 29 29 28 27 25 20 16 19 23 24 24 20 18 19 20 22 27 32 35 36 36 35 34 35 38 41
36 35 33 33 31 29 28 26 25 24 23 22 21 19 17 14 13 13 13 12 12 12 12 12 13 14 16 16 15 15 15 15 15 15 15 17 18 19 20 21 22 22 22 23 23 23 23 25 26 26 26 26 28 28 27 25 24 24 27 29 30 30 29 27 24 20 20 22 23 23 22 22 23 22 23 27 30 31 32 33 34 34 36 39 41
35 34 33 32 31 29 28 26 25 24 23 22 20 18 16 14 13 12 12 12 12 12 12 13 13 14 14 15 16 16 17 17 17 18 18 19 20 20 21 22 22 23 24 24 24 23 24 24 24 24 25 26 27 28 29 29 27 25 25 26 29 31 31 30 28 25 22 22 22 23 25 25 25 26 26 27 30 30 29 31 33 35 38 39 40
35 35 34 32 30 29 28 27 26 25 23 21 19 17 15 13 13 13 12 12 12 13 13 14 14 14 14 15 15 15 15 16 17 18 19 19 20 21 22 23 23 23 24 25 25 24 24 24 25 25 25 26 27 27 28 29 29 28 27 25 25 28 30 31 31 29 27 24 22 21 24 25 25 27 30 31 30 27 25 27 31 33 36 38 39
36 35 33 32 31 29 28 27 26 25 23 21 19 16 14 14 14 13 13 13 13 14 14 14 14 14 15 15 15 16 16 17 18 19 19 20 21 22 22 22 23 23 24 25 26 25 25 25 26 26 27 27 27 27 27 28 28 28 28 28 25 24 26 28 29 29 29 28 25 21 22 26 25 27 31 35 33 30 26 24 26 30 34 36 38
36 34 33 32 31 30 29 28 26 24 23 20 18 16 15 15 14 14 14 13 14 14 14 14 14 15 16 16 17 17 17 17 18 20 21 22 23 24 24 24 24 24 25 25 26 27 27 27 27 27 27 27 27 27 28 28 28 27 27 27 26 24 24 25 26 27 28 27 26 24 24 27 27 27 32 35 33 31 30 26 24 27 31 34 36
35 33 33 31 30 30 29 27 25 23 21 20 18 17 16 15 15 15 14 14 15 15 14 15 14 14 15 15 15 15 16 17 18 19 21 22 22 23 24 25 25 25 25 25 25 26 26 26 27 27 28 28 28 28 28 29 30 31 31 28 27 27 25 23 23 25 25 24 25 25 25 24 24 24 28 31 27 25 30 32 30 30 30 31 34
35 33 32 31 31 30 28 26 24 22 21 19 18 17 16 16 15 15 15 15 16 15 15 15 15 15 15 15 15 15 16 18 19 20 21 22 22 23 23 24 24 25 26 26 26 26 26 26 26 26 26 27 28 29 31 32 32 35 37 35 32 30 29 26 22 21 21 20 21 23 21 18 20 22 25 30 31 29 32 33 30 30 31 29 30
34 33 32 30 30 29 27 26 24 22 21 19 18 17 16 16 16 16 16 16 15 14 13 13 14 15 14 15 16 17 18 20 21 22 23 23 24 24 25 24 24 24 25 26 27 28 28 30 31 31 31 31 30 29 30 32 33 35 37 38 36 34 32 30 27 23 20 17 18 20 18 16 21 26 30 35 36 33 33 32 27 28 28 23 22
32 31 31 30 30 28 27 25 24 22 21 19 18 17 16 16 17 17 16 15 13 12 12 13 14 13 13 14 16 17 18 20 21 22 24 25 26 27 28 28 27 26 26 26 27 28 28 30 31 33 35 35 34 32 31 31 32 32 34 36 37 37 35 33 31 29 24 20 19 19 17 17 22 29 32 35 35 33 35 36 31 29 28 22 17
28 29 30 29 29 28 27 25 23 22 20 18 17 17 17 17 16 16 14 11 11 12 13 13 11 11 13 15 16 17 19 20 22 23 25 26 27 28 30 31 31 30 29 28 29 29 29 30 30 31 32 33 33 33 33 33 33 33 34 35 36 37 37 36 35 33 31 26 23 23 20 18 21 29 32 32 34 35 36 36 34 32 32 29 24
23 26 28 29 28 27 25 24 22 20 18 17 17 17 17 16 15 13 11 11 12 13 12 11 10 12 14 15 17 19 20 22 23 24 26 27 27 28 29 31 32 32 31 31 31 30 30 30 30 31 32 32 32 32 33 33 34 34 35 35 35 36 37 38 39 38 37 33 30 30 29 23 21 27 34 37 36 35 33 32 34 36 36 35 35
20 22 26 28 26 24 22 21 20 18 17 16 17 16 15 14 12 11 11 12 12 12 10 10 11 13 14 16 18 19 20 22 23 23 24 25 25 26 27 28 30 30 30 30 31 32 32 32 32 32 32 32 32 32 31 32 32 32 33 33 34 34 33 34 35 37 40 39 37 37 38 34 29 26 31 37 39 38 38 39 39 40 37 32 30
22 21 23 25 24 23 21 19 17 16 15 15 15 14 13 12 10 11 11 10 8 7 8 9 11 13 15 17 19 21 22 22 23 23 23 23 24 24 26 27 28 29 30 30 31 32 32 32 33 34 33 33 33 32 32 32 31 32 33 34 36 38 36 34 32 32 35 39 41 42 42 42 40 34 31 33 39 41 41 43 43 39 32 24 19
24 22 24 25 24 22 19 17 15 14 13 13 13 12 11 11 10 8 7 5 5 6 8 10 13 15 17 18 20 22 23 23 23 24 25 26 27 27 28 28 29 29 30 31 31 32 32 33 33 34 34 35 34 34 34 34 34 35 35 35 37 39 42 41 36 33 34 35 38 41 43 43 43 41 37 33 37 39 33 29 30 30 25 19 16
26 24 24 25 24 21 17 15 13 12 12 12 11 9 8 7 5 3 4 5 6 8 11 13 15 17 18 20 22 23 25 26 27 28 28 28 28 28 28 29 29 30 31 32 32 33 34 34 35 35 36 35 34 34 33 33 36 36 35 35 35 36 41 43 40 38 37 36 36 38 40 42 42 42 42 38 37 40 32 22 23 27 24 17 14
29 28 26 24 22 19 16 13 11 10 9 8 6 4 3 2 2 4 6 7 8 9 12 14 15 17 19 22 23 25 27 28 28 28 28 28 28 28 29 29 29 30 32 32 33 34 35 35 35 36 37 37 35 34 33 33 35 35 33 33 33 34 37 38 36 36 35 35 36 36 37 40 42 41 42 41 40 42 40 33 31 31 27 20 17
31 30 27 23 20 18 16 13 10 8 5 2 2 1 2 3 4 6 7 8 9 10 12 14 16 18 20 22 23 25 27 28 28 28 28 29 29 29 30 30 30 31 32 33 34 35 35 35 35 36 38 38 37 37 36 35 36 35 33 31 32 34 35 32 31 32 30 29 30 30 31 36 41 42 41 42 43 44 46 44 42 38 32 28 24
30 29 26 24 21 17 14 12 9 6 4 2 2 4 6 6 7 8 10 9 9 11 14 16 18 19 20 21 23 25 27 28 28 28 29 29 29 30 31 31 31 31 32 33 34 34 33 34 37 38 38 39 39 39 39 39 39 38 35 33 34 33 30 29 30 31 32 32 32 29 29 33 38 41 41 43 45 47 48 48 47 45 40 34 32
31 30 27 22 19 15 12 11 9 6 3 3 6 7 8 9 10 11 11 9 9 12 15 17 18 20 21 23 25 26 27 28 29 29 29 29 30 32 32 31 31 31 33 33 34 35 35 36 38 38 37 38 39 39 40 41 41 42 40 39 39 35 31 32 33 33 35 38 37 34 32 32 33 37 41 43 46 48 49 50 50 50 48 41 37
30 27 23 18 16 14 12 10 6 3 4 6 7 7 8 9 11 11 9 8 10 11 14 16 18 20 22 24 26 27 28 28 29 29 29 30 31 32 32 32 32 33 34 34 34 35 36 37 38 37 36 36 37 37 39 39 40 42 44 44 43 41 38 38 37 35 37 37 35 34 33 31 30 33 38 41 45 48 49 50 51 51 51 48 44
27 23 21 18 16 12 8 5 3 5 5 4 5 6 8 10 10 9 7 8 9 11 14 16 17 20 24 26 28 28 28 28 28 28 29 30 31 32 33 34 35 36 35 35 35 37 39 40 40 40 39 38 37 37 38 39 39 41 43 43 43 43 42 41 38 37 37 35 33 33 32 31 29 31 35 38 43 47 47 47 48 47 46 45 43
26 23 19 15 12 8 6 5 5 5 3 1 4 7 10 9 9 7 7 8 10 11 13 15 17 21 24 27 28 28 27 27 28 28 29 30 31 32 33 35 36 36 37 38 38 40 41 42 43 43 42 41 40 39 39 40 41 41 42 42 42 42 41 40 39 36 33 31 31 31 31 31 29 30 33 37 41 44 44 42 42 42 40 39 37
22 19 16 13 10 10 10 10 7 5 1 2 4 7 8 6 7 6 8 9 8 9 11 15 19 21 23 25 28 28 27 27 28 29 30 31 31 31 32 33 35 36 38 39 41 42 44 45 46 47 46 45 43 41 40 40 41 42 42 41 41 40 39 39 37 32 30 29 29 29 31 32 31 31 33 33 35 38 40 38 35 35 34 33 29
20 17 15 13 11 11 11 9 6 4 2 1 2 4 3 2 3 6 7 6 6 8 11 15 18 20 22 24 26 27 27 28 29 30 30 30 30 30 32 34 36 37 39 41 42 44 45 45 45 45 45 45 43 41 40 39 38 39 40 40 40 40 38 36 33 29 28 28 28 28 31 31 29 28 29 30 33 36 39 38 34 31 30 30 25
20 17 16 15 11 8 8 7 5 5 4 2 3 4 4 4 6 6 6 5 6 7 10 14 17 19 22 24 26 26 27 27 28 29 29 30 32 33 34 35 37 37 38 39 40 41 41 41 42 42 41 41 39 39 38 38 36 35 35 37 38 39 38 35 32 30 28 28 28 28 28 26 24 25 27 30 33 35 37 39 36 32 31 31 27
19 17 16 15 10 6 7 7 6 6 6 7 6 6 7 7 7 5 5 6 5 6 10 14 16 19 22 25 26 25 26 27 28 30 32 34 36 37 37 37 37 37 38 39 40 40 40 40 40 38 35 34 33 33 34 35 35 34 33 32 33 35 37 36 35 33 31 29 28 26 25 23 24 26 28 31 33 34 35 37 36 35 34 33 30
18 17 17 14 10 5 4 5 7 8 9 8 7 7 8 6 5 5 6 7 5 7 11 13 16 22 26 26 25 24 26 28 31 34 35 35 35 36 37 37 37 38 40 41 40 39 38 36 34 31 27 26 26 27 28 30 31 32 32 30 29 29 29 31 33 33 31 30 28 27 26 25 24 25 28 30 30 32 34 35 35 34 33 32 30
17 19 18 13 9 6 4 5 9 11 9 8 8 7 4 3 3 5 6 7 6 8 12 14 19 27 30 27 26 26 28 31 33 34 34 33 34 35 36 37 37 38 38 37 35 34 32 30 28 25 23 22 22 22 23 24 25 26 28 29 29 27 27 27 29 30 31 30 30 30 29 28 26 26 28 29 29 29 30 33 35 35 33 31 29
14 17 15 12 8 5 4 7 13 11 7 7 8 6 2 1 3 5 7 9 9 9 11 15 22 29 30 28 28 29 31 32 33 33 33 33 33 34 34 35 35 32 30 29 29 29 27 24 22 20 19 20 19 19 20 21 21 23 24 25 27 29 29 29 29 30 31 32 32 32 31 31 29 28 28 30 30 29 29 30 32 32 31 32 31
13 14 12 9 4 2 3 9 13 9 6 7 8 6 5 6 5 6 8 10 11 11 14 19 23 28 30 30 30 31 32 32 31 32 32 33 33 34 33 32 30 26 24 23 23 23 20 18 18 17 16 16 17 17 19 20 21 22 22 22 25 29 31 32 32 33 34 34 33 32 32 32 31 30 30 31 31 29 28 29 29 29 28 29 29
16 14 11 9 6 6 9 12 10 6 6 7 7 8 9 8 8 9 10 10 10 13 17 21 22 25 30 32 32 32 32 31 30 31 32 32 33 33 31 29 26 23 22 21 18 18 17 14 12 13 13 15 16 17 19 21 22 23 23 23 25 27 29 31 33 35 37 36 35 34 32 31 31 30 30 30 31 30 28 27 28 28 28 27 27
13 11 9 9 10 13 12 10 8 8 8 7 8 11 10 9 9 11 12 11 10 13 18 21 21 23 28 32 34 34 32 30 29 30 31 32 32 31 29 27 26 25 23 22 20 19 18 14 9 6 7 10 12 14 16 17 18 19 20 20 20 21 24 29 32 34 34 34 33 33 32 32 32 31 30 29 28 28 27 27 27 27 27 26 26
7 6 6 7 10 11 9 8 10 13 13 10 10 11 10 11 12 12 11 9 12 16 19 20 21 23 25 29 34 36 33 29 29 30 30 30 31 30 27 25 26 26 25 24 23 20 18 15 12 7 2 3 6 8 9 9 10 11 13 15 17 20 25 29 32 33 33 33 32 32 32 32 32 32 32 31 29 28 27 26 26 26 26 26 26
5 7 8 7 7 8 9 10 13 15 14 12 11 10 11 12 13 12 8 8 12 16 17 18 20 23 24 27 32 35 33 29 28 28 28 29 30 29 26 24 24 23 23 23 23 22 19 16 13 9 5 1 3 5 7 7 7 8 10 13 17 22 25 28 30 32 32 31 31 32 32 32 31 32 32 30 29 29 28 27 28 28 28 28 26
10 11 11 9 7 8 10 11 13 14 14 12 10 11 10 10 13 11 8 10 13 15 15 16 19 22 23 25 30 35 33 29 27 26 27 28 29 28 26 24 23 22 21 21 22 21 19 17 14 10 6 4 4 6 7 8 9 10 12 14 16 19 21 24 27 31 32 31 31 31 32 32 32 33 32 30 28 28 29 29 29 28 29 29 27
15 14 11 8 8 10 11 10 11 13 12 10 10 10 8 8 10 9 9 11 12 13 14 15 17 20 21 22 27 33 34 30 27 26 27 28 28 27 26 24 23 22 22 22 21 20 19 18 16 12 9 7 7 8 9 10 12 13 15 16 15 17 19 20 23 25 28 30 30 30 30 30 30 31 32 31 29 29 30 30 30 29 29 28 25
11 9 9 9 9 10 9 7 8 9 8 6 6 7 6 6 7 8 9 11 12 12 12 13 16 18 18 19 24 31 31 28 26 25 26 26 26 26 25 24 23 22 22 22 22 20 19 19 18 15 13 11 10 10 12 13 15 16 18 19 19 18 19 20 22 23 24 27 28 29 29 28 28 29 30 30 30 31 31 31 31 30 29 27 26
9 8 8 8 8 7 6 6 6 7 7 4 2 5 6 6 7 9 11 11 11 10 11 13 15 17 16 16 21 27 27 24 22 23 24 24 24 24 24 24 22 22 22 21 21 20 19 19 19 18 17 15 14 13 14 16 18 19 20 21 22 21 20 20 22 23 24 26 27 29 29 29 29 30 29 29 31 32 33 33 32 31 30 30 30
10 8 7 6 6 6 6 8 6 6 7 5 5 8 10 9 9 10 12 12 10 9 11 13 14 15 15 14 17 23 25 23 21 21 22 23 23 24 24 24 23 23 22 22 21 21 20 20 21 20 19 18 17 17 17 18 19 20 22 23 24 24 23 22 22 23 25 26 27 29 29 30 32 32 31 32 33 34 35 34 32 32 32 32 32
9 8 6 4 4 4 5 7 6 6 9 9 8 10 11 10 9 9 12 13 9 7 11 14 13 13 15 14 15 20 25 25 22 20 20 21 23 23 23 24 23 23 22 22 21 21 21 22 23 22 22 21 20 19 19 19 20 21 23 24 25 26 25 24 23 24 26 26 27 29 30 32 33 34 34 36 37 36 35 33 32 32 32 31 32
4 6 7 7 5 5 5 6 7 7 8 9 8 9 10 9 8 9 11 11 8 7 10 13 13 12 14 14 14 18 23 26 25 21 19 20 22 23 23 23 23 22 21 21 22 22 22 24 24 25 24 24 23 22 22 21 21 22 23 24 26 27 27 26 26 26 28 28 29 31 32 33 34 35 35 36 36 36 34 33 32 31 31 30 31
8 7 6 6 7 8 8 8 8 8 7 9 12 15 17 17 15 14 13 10 7 7 10 12 11 11 14 14 14 15 20 24 25 23 20 19 20 22 22 22 22 22 22 22 22 23 24 25 26 27 27 26 25 25 25 24 24 24 24 25 27 27 27 28 28 29 31 32 32 32 34 35 35 35 35 36 36 35 34 33 32 31 30 30 30
21 17 13 11 11 13 15 14 12 11 12 16 19 21 23 24 24 24 21 15 8 8 10 12 10 10 13 15 14 14 17 21 23 23 21 19 19 20 21 21 22 22 22 23 23 23 24 26 27 28 28 28 28 28 28 28 27 27 27 27 28 28 28 29 30 32 33 34 34 34 35 36 36 35 35 35 35 35 33 32 32 30 29 29 29
24 24 23 22 21 22 23 21 19 19 20 21 22 22 24 24 24 24 25 22 16 11 11 13 11 9 11 15 15 14 15 17 20 23 23 20 18 18 19 20 20 21 22 23 23 24 25 26 27 28 28 29 29 30 30 30 30 30 30 30 30 30 30 31 33 34 35 36 36 37 37 37 36 36 35 35 35 35 33 32 32 31 30 29 28
25 24 25 25 25 25 25 24 23 23 23 23 23 24 24 25 24 23 24 25 23 20 18 19 17 14 12 13 15 15 15 15 16 19 22 21 18 17 17 18 19 20 21 21 22 23 24 26 27 27 28 29 30 31 31 31 32 32 32 32 33 33 33 34 34 35 36 36 36 37 37 37 36 36 35 35 34 34 33 32 32 32 31 29 27
26 25 25 25 25 25 25 25 25 24 23 23 24 24 24 24 25 24 23 23 24 23 23 24 24 23 19 16 15 15 15 13 13 15 18 20 19 17 16 17 18 19 20 21 21 21 23 24 25 26 27 29 29 30 31 31 32 32 33 33 33 34 35 35 36 36 36 36 36 36 36 35 35 34 34 34 33 32 32 31 30 30 29 27 26
26 25 25 25 25 25 24 24 23 23 22 22 24 24 24 23 23 23 23 22 23 23 22 22 23 25 24 21 18 16 15 13 12 11 13 17 19 17 15 16 17 18 19 21 22 22 22 24 25 26 27 27 28 30 30 30 31 31 31 31 31 33 35 36 36 37 37 37 37 36 36 36 35 34 33 33 32 31 31 30 29 28 27 26 26
25 25 25 25 25 24 23 23 23 22 22 23 24 24 24 23 23 23 22 22 22 22 22 22 22 22 23 23 22 20 18 17 15 12 10 12 16 18 17 15 16 18 19 20 22 23 24 24 25 26 27 27 27 28 29 29 29 29 28 27 28 29 31 32 33 34 35 35 35 35 35 34 34 33 32 32 31 30 29 28 27 27 26 25 25
24 24 24 24 24 23 23 24 23 23 23 24 25 24 24 24 24 23 22 21 21 21 20 20 20 20 21 22 23 23 22 21 20 18 13 9 10 15 18 17 16 17 19 20 21 22 23 23 24 25 26 26 26 27 27 27 26 26 26 26 26 26 27 27 28 28 29 30 30 31 31 31 30 30 30 29 29 28 26 26 25 25 25 25 25
Wind_Direction
197 199 201 203 204 205 207 208 207 207 207 208 211 214 217 220 222 223 229 238 249 261 273 276 270 266 270 278 285 287 286 284 283 283 284 287 291 293 295 298 295 291 291 292 291 290 291 291 291 290 289 288 288 290 288 276 261 252 249 248 245 242 237 231 232 251 252 247 246 245 239 235 238 241 237 226 216 213 214 215 216 216 215 213 210
198 198 199 201 204 206 206 207 207 208 208 211 214 215 217 218 219 226 236 246 257 267 272 272 269 270 274 281 287 289 290 291 288 284 283 286 289 292 295 297 296 293 292 291 290 290 290 290 291 291 291 291 288 287 289 287 274 256 247 245 246 244 240 235 232 241 252 250 243 239 233 225 224 225 226 219 208 204 207 208 209 210 209 208 208
196 196 196 199 203 204 205 205 205 207 208 210 213 214 216 218 224 234 244 253 261 268 270 273 275 277 280 284 285 286 289 291 292 291 292 294 295 295 295 294 293 292 291 290 290 290 290 290 290 291 292 293 291 288 286 287 287 275 258 247 244 244 240 236 233 234 246 252 243 235 230 225 223 223 221 215 207 202 204 204 203 204 205 206 208
193 193 195 197 200 201 202 202 202 204 206 208 210 212 216 222 231 240 248 256 263 266 269 275 282 285 289 291 290 290 291 291 293 293 294 295 295 295 295 292 290 289 288 288 288 288 288 289 289 290 292 292 292 291 288 286 286 286 277 262 250 245 241 236 235 236 243 251 245 235 229 223 221 220 216 209 206 206 205 203 201 201 203 206 209
191 192 193 193 195 198 199 199 201 202 203 205 207 210 217 224 231 238 246 253 257 263 268 274 279 285 291 296 297 299 300 300 299 296 295 296 295 294 293 290 287 286 286 287 286 286 286 286 287 288 290 290 289 290 290 289 286 285 286 281 268 256 247 239 235 235 238 244 245 238 229 223 217 212 208 204 202 202 203 203 200 200 202 204 207
188 190 190 189 192 195 196 197 198 199 202 204 207 211 216 222 227 235 241 246 253 260 266 270 276 283 290 294 298 303 306 307 305 302 299 297 295 293 292 291 289 287 285 285 285 285 284 284 285 286 285 285 284 285 288 291 291 288 286 285 283 274 260 248 239 232 231 237 245 243 232 225 214 202 203 205 201 195 193 197 200 200 202 202 204
186 186 187 188 189 192 194 195 197 199 202 204 207 211 215 221 227 231 237 245 253 255 260 269 277 284 289 293 298 303 306 306 305 304 301 298 295 292 290 290 291 289 287 286 284 283 283 282 282 282 282 282 282 283 285 289 291 292 290 288 289 286 276 264 251 239 231 233 240 243 238 229 215 199 197 200 199 194 189 184 191 200 202 201 202
183 184 185 186 189 191 192 193 195 198 202 205 208 211 215 220 226 232 239 244 247 253 264 274 280 285 290 295 298 301 305 307 307 307 305 302 298 294 290 288 288 287 286 286 284 284 282 281 280 279 278 279 278 279 280 284 288 289 290 291 292 293 292 281 264 251 241 233 232 238 239 229 213 197 188 185 184 187 189 188 190 196 199 200 203
181 182 183 185 188 190 190 191 194 196 199 203 206 209 213 219 226 233 237 240 248 262 272 274 277 281 285 289 292 297 301 303 304 305 306 305 302 298 295 292 289 287 286 285 284 283 282 282 282 282 281 280 279 279 278 278 281 283 285 287 289 291 294 293 282 268 257 245 236 236 237 227 207 186 175 180 186 190 191 192 193 195 195 196 201
180 179 181 183 185 187 188 190 193 195 198 200 202 207 214 222 228 231 236 248 261 269 272 273 275 277 280 286 291 297 300 299 299 299 298 300 301 302 301 299 296 293 290 287 285 282 281 280 280 280 281 282 283 284 283 280 278 278 279 282 283 282 283 285 284 280 271 261 249 239 231 222 206 189 183 191 196 193 189 190 191 188 185 188 199
176 176 177 179 181 183 186 189 192 194 196 197 201 211 220 224 229 235 244 256 263 265 273 276 274 275 284 295 300 301 301 300 298 296 293 294 296 298 299 299 298 296 293 290 287 285 283 281 280 279 278 278 279 279 282 284 283 281 280 280 280 278 276 274 274 274 272 268 265 253 235 220 208 198 194 196 196 192 191 193 190 181 178 184 194
171 173 174 175 177 181 184 186 187 189 191 198 208 216 220 223 230 238 244 253 264 274 279 275 273 286 299 304 305 304 304 303 300 297 295 293 293 292 291 292 293 292 291 289 287 286 285 283 281 279 277 276 276 275 276 278 280 282 283 282 280 277 275 272 268 267 265 263 264 263 255 241 221 207 201 199 196 195 195 195 191 185 186 192 195
169 169 171 171 172 175 179 181 183 187 195 205 212 212 216 226 232 238 250 270 278 275 271 271 285 303 309 310 309 308 307 304 301 298 296 295 294 291 288 287 288 288 288 288 286 285 284 283 281 279 277 277 276 275 274 275 275 278 280 282 281 278 276 273 269 266 264 260 257 258 258 255 241 220 211 205 199 194 193 194 195 194 195 200 202
168 167 168 169 170 171 175 179 183 191 198 203 207 212 221 229 235 250 271 280 275 268 272 290 307 313 313 313 312 310 309 306 303 301 299 298 296 292 288 287 287 287 286 286 285 284 282 281 279 278 277 276 275 274 274 274 274 274 275 278 280 281 280 278 273 269 265 260 254 253 253 252 252 244 229 214 204 197 196 197 200 201 201 205 208
170 172 171 170 171 172 174 177 181 188 196 202 211 220 226 234 248 269 277 274 270 280 300 314 320 321 319 317 313 310 310 308 306 304 302 302 300 297 295 294 292 290 288 286 284 283 281 279 277 275 275 273 271 271 272 272 272 271 271 272 274 278 279 278 277 273 269 264 258 255 254 251 249 251 245 226 211 206 206 205 204 202 200 201 203
170 174 172 170 169 168 170 174 179 189 200 210 220 228 236 249 261 268 272 276 290 308 317 320 321 321 320 319 316 313 311 310 308 307 305 305 304 301 298 296 294 291 289 288 286 284 282 279 276 274 273 271 269 269 268 269 270 268 268 267 269 272 273 273 274 274 274 273 268 264 261 257 250 246 245 238 222 213 212 210 202 196 192 191 190
170 172 168 164 161 160 162 168 180 198 210 218 228 237 246 254 259 266 287 300 307 314 319 321 323 322 319 318 315 313 310 308 306 305 305 305 304 301 299 297 295 292 290 289 287 285 282 279 276 274 272 270 269 267 265 265 265 264 264 264 264 266 269 271 273 274 275 276 277 274 270 265 257 247 242 241 229 213 203 197 194 191 190 190 191
170 168 159 154 154 156 162 173 188 203 211 217 224 231 246 263 295 309 304 300 304 313 317 319 320 320 319 318 314 309 305 303 302 301 301 301 300 299 299 298 295 293 291 290 287 286 284 281 276 273 271 270 268 266 263 262 260 259 259 261 260 260 264 269 273 275 278 280 279 280 277 267 259 249 242 238 229 213 202 199 197 193 193 198 199
168 162 154 154 156 159 168 179 187 191 191 196 209 257 320 324 317 304 291 284 289 302 311 314 314 316 317 316 312 306 301 299 299 297 296 296 296 296 298 298 296 294 292 290 288 287 285 283 279 274 272 270 268 265 262 258 257 256 255 256 256 256 259 266 270 271 277 284 284 286 286 274 259 248 240 233 226 217 211 208 203 196 197 201 195
159 154 150 153 154 156 167 178 183 186 190 207 268 303 308 304 293 279 267 268 284 302 312 310 307 308 311 312 309 304 300 299 298 296 293 292 291 291 293 294 293 291 290 289 289 287 285 283 282 278 276 273 268 265 261 256 254 254 253 251 252 254 258 263 266 267 270 278 285 289 294 286 265 246 234 227 222 218 215 213 206 202 202 200 194
139 139 141 143 144 150 162 165 162 169 196 252 282 287 283 275 266 257 253 266 290 305 309 307 303 304 306 307 306 304 301 300 299 298 295 292 291 290 290 289 288 288 289 288 287 286 284 282 282 280 278 275 269 264 260 256 253 251 249 249 251 255 260 260 262 267 269 272 279 284 290 290 270 242 227 221 218 215 213 211 208 208 208 202 197
127 129 130 132 137 144 146 143 146 195 244 264 267 265 264 257 248 244 250 273 293 302 305 306 305 304 305 306 305 304 303 302 301 300 298 295 293 291 288 287 288 288 288 286 284 283 281 280 280 279 278 276 270 264 259 255 252 249 248 250 252 254 256 257 258 263 266 268 273 277 282 286 267 235 219 216 215 211 209 209 208 209 211 209 206
124 125 128 132 135 133 131 137 199 225 227 241 251 268 276 258 237 235 253 277 290 300 308 311 310 309 308 308 308 306 305 304 303 302 301 298 295 293 290 290 290 288 285 283 282 281 280 279 280 279 278 275 270 265 261 255 251 249 249 251 253 252 253 254 254 256 259 263 267 268 272 276 260 231 215 212 211 207 205 206 206 207 208 209 210
125 127 126 125 122 117 123 144 165 169 167 246 279 297 292 261 230 235 266 284 294 303 314 320 319 315 311 310 310 310 309 307 305 304 303 301 298 296 294 293 291 288 284 282 281 281 280 279 280 279 277 274 269 265 261 256 253 251 250 251 252 252 250 249 249 251 252 256 259 259 262 266 255 232 219 215 209 202 200 201 203 204 204 204 207
120 119 117 116 120 130 133 127 124 128 125 282 294 315 304 253 226 254 277 287 298 310 326 331 327 320 315 312 313 313 312 310 308 306 306 305 302 299 297 295 292 289 286 284 283 282 281 281 281 279 277 273 268 264 260 256 253 251 250 250 250 249 247 245 245 245 245 247 251 251 254 258 252 235 223 213 201 194 192 192 194 196 197 199 201
111 112 122 126 125 133 133 118 114 145 163 275 322 350 344 253 260 286 281 284 304 321 334 338 332 324 319 317 316 314 313 312 309 308 309 308 305 304 301 298 295 293 290 287 286 286 285 283 282 280 278 274 267 260 255 251 250 249 249 249 248 244 242 240 240 239 238 241 244 245 248 252 244 227 212 200 190 186 185 184 184 185 187 187 181
109 115 129 131 122 132 141 130 141 171 159 103 74 56 32 344 315 299 278 279 305 327 341 341 333 326 326 325 321 316 314 312 310 311 313 311 310 308 305 302 299 296 293 291 290 288 287 285 284 282 278 274 267 259 252 248 246 245 245 246 245 242 239 238 238 237 237 237 238 240 241 238 225 208 194 184 181 181 182 181 177 173 176 176 164
116 118 124 122 114 134 160 158 165 163 128 96 77 40 4 336 315 297 284 286 300 338 355 348 337 335 336 332 325 318 315 314 313 315 316 315 312 310 307 303 301 297 295 294 293 291 288 287 285 281 274 268 262 255 249 244 241 240 239 240 240 237 236 237 237 236 235 233 230 227 222 212 202 192 181 175 173 174 177 178 173 168 167 165 155
130 130 125 116 108 124 160 169 159 138 111 88 57 22 1 341 317 296 289 285 298 350 2 356 349 349 347 338 327 318 314 315 317 318 318 317 315 312 308 305 302 299 298 296 294 291 288 285 281 274 263 255 250 246 242 238 235 234 233 233 233 232 231 232 230 229 229 225 216 206 198 192 186 178 171 166 166 169 172 173 168 164 163 160 154
138 135 130 123 123 141 164 155 140 128 106 74 43 25 18 354 325 312 301 290 295 339 357 0 359 357 352 343 332 324 317 317 320 321 321 321 320 316 312 310 308 304 302 301 296 289 284 279 274 266 254 246 241 238 234 229 226 225 225 226 229 233 234 233 230 227 222 213 202 194 188 181 175 170 165 160 159 162 167 169 165 162 159 154 149
139 134 135 134 135 163 184 143 127 118 91 53 31 21 53 80 343 325 316 303 297 314 335 344 351 355 354 346 339 333 327 325 326 328 328 327 325 322 319 317 316 312 310 307 298 288 281 275 271 265 252 241 236 232 227 221 219 221 223 224 228 232 233 234 232 222 209 198 191 186 182 177 172 169 164 158 154 155 159 161 161 160 159 155 150
133 126 126 124 123 210 172 128 115 102 61 32 20 27 65 64 20 343 324 309 296 301 316 327 339 350 354 351 344 338 334 334 335 335 334 332 330 328 326 326 324 324 323 317 303 294 292 284 273 265 251 236 230 226 221 219 220 223 225 227 232 234 234 230 221 206 193 186 181 178 176 173 170 166 161 156 153 152 153 155 156 156 154 151 149
119 109 104 98 75 75 101 104 96 76 35 25 41 61 63 45 19 1 348 329 305 303 318 326 333 344 351 352 349 343 340 340 341 340 339 337 335 334 334 335 337 338 337 331 319 312 316 311 285 263 247 235 231 228 225 225 227 229 230 232 233 233 227 215 201 190 183 180 177 174 172 169 165 160 156 154 152 150 150 150 150 150 147 144 144
102 96 103 98 78 78 89 88 67 44 26 31 66 72 53 29 11 0 353 341 322 317 327 333 334 339 346 352 352 349 346 346 346 345 343 341 341 342 342 344 347 350 349 346 338 329 330 333 325 292 252 238 235 232 230 232 233 233 233 230 222 211 197 186 179 175 173 173 171 169 167 164 160 155 151 149 148 147 147 147 146 146 144 142 142
95 112 127 108 79 71 73 65 45 34 33 54 77 64 36 17 8 359 348 336 324 321 327 335 339 339 342 349 353 353 351 350 350 348 347 346 348 350 351 350 350 351 350 350 348 344 341 343 343 341 315 227 220 219 219 221 222 219 213 204 191 177 169 168 168 167 167 166 165 164 161 159 158 155 150 149 147 145 145 146 145 143 142 140 140
139 153 141 115 86 70 67 56 39 36 52 78 78 50 29 16 4 353 339 328 326 323 324 332 340 341 342 348 354 355 355 355 353 351 350 352 355 357 356 352 349 347 346 349 351 352 353 355 355 354 1 85 170 183 184 177 174 176 173 169 165 162 161 162 162 162 163 163 161 159 157 156 155 153 150 148 147 145 144 143 141 140 140 139 139
133 134 126 114 94 77 67 51 36 46 73 86 64 40 32 15 357 339 314 315 327 328 326 331 338 341 342 348 355 358 357 357 357 355 356 358 1 3 0 355 352 349 348 351 355 357 359 4 8 11 20 62 121 146 153 149 146 147 147 146 150 153 156 158 159 158 158 158 156 156 155 155 155 153 148 144 142 142 141 140 138 137 139 140 139
109 112 110 102 86 75 67 49 39 54 78 85 59 42 29 3 352 335 306 309 324 332 332 335 339 342 341 347 356 1 1 360 359 358 360 1 3 4 2 358 357 355 354 355 360 3 6 12 19 27 38 62 98 120 131 135 136 138 138 137 138 143 146 148 149 150 151 150 151 151 151 150 150 149 146 142 140 139 138 137 135 134 134 134 131
89 86 80 79 82 79 69 48 36 47 65 79 61 36 5 344 343 331 313 311 321 330 334 336 344 349 347 348 358 4 4 2 359 358 359 1 2 4 3 1 1 1 1 3 6 10 13 19 27 37 47 60 81 102 116 124 128 132 134 133 130 130 134 135 136 137 139 141 142 144 144 144 144 144 142 140 139 137 135 135 134 133 131 130 130
70 67 70 80 96 95 67 39 32 40 46 56 31 356 344 331 323 321 319 317 318 326 332 334 345 354 351 349 2 11 10 4 360 359 0 0 2 4 5 5 5 5 7 9 13 16 21 27 34 42 50 59 71 85 100 112 118 122 125 126 124 122 124 127 130 132 134 136 137 138 139 139 139 137 135 134 135 135 133 131 131 132 131 131 131
63 61 63 80 113 112 61 35 31 32 26 7 324 316 321 316 306 314 326 326 316 319 332 335 344 356 355 349 1 15 17 12 5 4 5 4 3 5 9 10 11 12 14 17 21 25 31 37 42 47 53 60 68 78 88 98 106 111 113 115 116 116 118 120 124 128 131 134 135 135 136 137 136 133 131 130 130 131 130 128 129 132 133 132 132
59 58 60 77 117 113 49 25 16 6 2 356 336 317 315 309 296 309 334 342 328 320 336 342 345 355 358 352 357 13 22 22 14 9 11 11 9 10 13 15 17 20 23 26 29 33 38 44 49 53 56 61 67 75 80 86 94 101 105 109 110 112 114 116 121 125 127 129 131 132 133 133 132 130 128 127 127 128 129 129 130 133 135 135 135
61 73 76 75 79 80 63 43 30 17 8 6 2 351 343 332 311 310 334 349 344 336 345 346 346 357 3 358 356 10 23 25 21 16 18 19 17 16 18 21 24 28 32 36 41 44 47 51 54 57 61 65 70 76 79 83 88 94 98 103 106 109 111 114 117 120 122 123 125 126 127 127 127 126 125 125 127 129 130 131 132 134 136 136 135
64 77 87 86 75 66 59 45 28 19 23 35 39 37 35 31 25 19 17 10 352 349 356 352 346 357 8 5 0 9 22 27 25 22 24 27 26 24 25 28 32 36 40 45 49 52 55 57 59 62 66 69 74 79 82 84 87 90 94 98 102 105 108 112 115 118 120 121 121 121 122 122 122 122 122 123 126 128 130 132 134 134 134 133 130
61 62 68 71 61 50 46 43 40 41 48 53 53 52 50 47 44 43 41 30 2 349 1 0 352 0 14 14 9 12 22 27 27 26 28 31 33 34 34 37 40 43 46 49 54 57 60 63 65 67 68 71 75 78 81 84 86 88 92 96 98 100 105 111 115 118 119 120 119 118 118 118 119 120 121 123 125 126 128 131 133 131 129 127 124
58 58 59 59 54 50 49 51 54 56 56 53 53 52 49 46 46 46 43 37 28 15 8 3 357 358 15 21 20 18 21 25 28 29 31 32 36 41 45 46 48 50 52 55 59 62 65 68 70 71 72 74 77 79 81 83 86 88 91 94 98 101 106 112 115 116 117 118 117 117 116 116 117 118 119 121 123 124 125 126 127 126 124 123 123
58 56 55 54 53 52 50 49 50 51 50 48 49 50 46 44 46 48 45 42 40 35 26 22 20 17 19 24 25 23 23 24 25 29 34 35 36 42 50 53 55 57 58 61 64 67 69 71 74 75 77 79 81 82 82 84 87 90 92 95 99 102 107 112 114 113 114 116 116 115 115 115 115 116 118 119 119 120 120 121 121 122 123 126 128
58 56 54 53 53 51 49 48 47 46 44 44 47 48 46 43 44 45 44 42 40 37 33 31 31 30 30 32 30 26 27 27 25 29 37 40 41 44 51 58 61 63 64 66 69 71 74 76 77 79 80 82 84 85 86 86 88 91 93 96 101 105 109 111 112 112 114 115 115 113 113 113 114 116 118 119 119 119 119 120 122 124 128 131 134
59 57 54 52 52 51 50 49 48 45 43 43 44 45 45 43 42 42 41 39 38 37 35 32 30 29 31 34 33 28 26 25 22 25 36 44 48 51 55 61 66 70 72 73 74 76 79 81 82 83 84 85 87 89 90 90 91 92 94 97 103 107 110 111 111 112 114 115 115 114 114 114 115 116 118 119 120 121 121 123 126 129 132 134 135
61 59 56 54 52 51 51 51 50 47 45 44 43 44 44 41 39 39 38 36 35 34 33 32 31 29 28 30 32 31 28 25 23 22 27 41 51 57 61 66 72 76 78 80 82 83 83 84 85 85 86 87 89 91 92 93 93 95 97 100 104 108 110 112 113 115 116 116 116 117 118 118 117 118 119 120 121 122 123 126 130 132 134 136 136
64 61 58 56 54 52 51 51 49 47 45 45 44 43 42 40 39 38 37 36 33 31 29 29 29 28 27 28 31 33 32 30 30 30 29 29 43 56 62 69 78 82 83 85 87 86 85 84 85 85 87 88 90 91 92 93 94 95 97 100 102 105 108 111 114 116 117 119 120 121 121 121 120 120 121 122 124 125 126 129 132 133 134 135 137